Wheeling, WV

12:57 AM EST on December 15, 2019 (GMT -0500)
Wheeling-Ohio County

Weather History for KHLG - October, 2019

Change the Weather History Date:

Wednesday, October 23, 2019

  Actual Average Record
Temperature  
Mean Temperature 51 °F 51 °F  
Max Temperature 59 °F 60 °F 84 °F (1947)
Min Temperature 43 °F 42 °F 20 °F (1930)
Degree Days  
Heating Degree Days 14 14  
Month to date heating degree days 14 249  
Since 1 July heating degree days 15 350  
Cooling Degree Days 0 0  
Month to date cooling degree days 0 10  
Year to date cooling degree days 936 688  
Moisture  
Dew Point 34 °F    
Average Humidity 60    
Maximum Humidity 83    
Minimum Humidity 36    
Precipitation  
Precipitation 0.00 in 0.08 in 1.15 in (2017)
Month to date precipitation 0.00 1.92  
Year to date precipitation 26.91 31.69  
Sea Level Pressure  
Sea Level Pressure 30.08 in    
Wind  
Wind Speed 9 mph (SW)    
Max Wind Speed 22 mph    
Max Gust Speed 29 mph    
Visibility 10 miles    
Events      
T = Trace of Precipitation, MM = Missing Value Source: NWS Daily Summary

Daily Weather History Graph

Daily Weather History Graph

Search for Another Location

Airport or City:

Astronomy

Oct. 23, 2019 Rise Set
Actual Time 7:41 AM EDT 6:31 PM EDT
Civil Twilight 7:13 AM EDT 6:59 PM EDT
Nautical Twilight 6:42 AM EDT 7:30 PM EDT
Astronomical Twilight 6:10 AM EDT 8:02 PM EDT
Moon 1:57 AM EDT (10/23) 4:21 PM EDT (10/23)
Length of Visible Light 11h 45m
Length of Day
10h 50m
Waning Crescent, 27% of the Moon is Illuminated
Oct 23
Waning Crescent
Oct 27
New
Nov 4
First Quarter
Nov 12
Full
Nov 19
Last Quarter

Hourly Weather History & Observations

Time (EDT) Temp. Windchill Dew Point Humidity Pressure Visibility Wind Dir Wind Speed Gust Speed Precip Events Conditions
12:53 AM 50.0 °F - 39.9 °F 68% 29.91 in 10.0 mi SW 6.9 mph - N/A   Scattered Clouds
1:53 AM 50.0 °F - 39.9 °F 68% 29.92 in 10.0 mi West 6.9 mph - N/A   Mostly Cloudy
2:53 AM 48.9 °F - 39.0 °F 69% 29.93 in 10.0 mi WSW 6.9 mph - N/A   Partly Cloudy
3:53 AM 48.0 °F - 39.0 °F 71% 29.94 in 10.0 mi WSW 6.9 mph - N/A   Clear
4:53 AM 46.9 °F - 37.9 °F 71% 29.96 in 10.0 mi SW 8.1 mph - N/A   Clear
5:53 AM 45.0 °F 40.6 °F 37.9 °F 76% 29.99 in 10.0 mi SSW 8.1 mph - N/A   Clear
6:53 AM 44.1 °F 39.5 °F 37.9 °F 79% 30.00 in 10.0 mi SW 8.1 mph - N/A   Clear
7:53 AM 44.1 °F 40.1 °F 37.9 °F 79% 30.02 in 10.0 mi SW 6.9 mph - N/A   Clear
8:53 AM 45.0 °F 40.6 °F 39.0 °F 80% 30.05 in 10.0 mi SW 8.1 mph - N/A   Clear
9:53 AM 48.0 °F - 37.9 °F 68% 30.07 in 10.0 mi SW 13.8 mph - N/A   Clear
10:53 AM 51.1 °F - 37.0 °F 59% 30.09 in 10.0 mi SW 10.4 mph 16.1 mph N/A   Clear
11:53 AM 53.1 °F - 30.9 °F 43% 30.12 in 10.0 mi WSW 19.6 mph 28.8 mph N/A   Partly Cloudy
12:53 PM 55.0 °F - 30.9 °F 40% 30.12 in 10.0 mi West 13.8 mph 24.2 mph N/A   Clear
1:53 PM 55.9 °F - 30.9 °F 39% 30.12 in 10.0 mi WSW 12.7 mph 24.2 mph N/A   Clear
2:53 PM 57.9 °F - 32.0 °F 37% 30.12 in 10.0 mi WSW 10.4 mph 17.3 mph N/A   Clear
3:53 PM 57.9 °F - 30.9 °F 36% 30.12 in 10.0 mi WSW 12.7 mph 18.4 mph N/A   Clear
4:53 PM 57.9 °F - 30.0 °F 35% 30.14 in 10.0 mi WSW 10.4 mph - N/A   Clear
5:53 PM 57.0 °F - 30.9 °F 37% 30.15 in 10.0 mi WSW 5.8 mph 16.1 mph N/A   Clear
6:53 PM 53.1 °F - 30.0 °F 41% 30.16 in 10.0 mi SSW 6.9 mph - N/A   Clear
7:53 PM 51.1 °F - 30.9 °F 46% 30.17 in 10.0 mi South 9.2 mph - N/A   Clear
8:53 PM 50.0 °F - 30.9 °F 48% 30.18 in 10.0 mi South 9.2 mph - N/A   Clear
9:53 PM 48.0 °F - 32.0 °F 54% 30.19 in 10.0 mi South 8.1 mph - N/A   Clear
10:53 PM 48.0 °F - 32.0 °F 54% 30.21 in 10.0 mi South 8.1 mph - N/A   Clear
11:53 PM 48.0 °F - 30.9 °F 52% 30.20 in 10.0 mi South 6.9 mph - N/A   Clear